Other Surface Observations
Issued by NWS Charleston, SC

Home | Current Version | Previous Version | Text Only | Print | Product List | Glossary On
Versions: 1 2 3 4 5 6 7 8 9 10 11 12 13 14 15 16 17 18 19 20 21 22 23 24 25 26 27 28 29 30 31 32 33 34 35 36 37 38 39 40 41 42 43 44 45 46 47 48 49 50
528
SXUS52 KCHS 230427
OSOCHS

MARINE OBSERVATIONS
NATIONAL WEATHER SERVICE CHARLESTON SC
1100 PM EST SUN JAN 22 2017

...DOWNTOWN CHARLESTON AND HARBOR...

CITY           SKY/WX    TMP DP  RH WIND       PRES   REMARKS
WATERFRONT PRK   N/A     64  63  96 S12       29.29F

...LAKE MOULTRIE...

CITY           SKY/WX    TMP DP  RH WIND       PRES   REMARKS
PINOPOLIS        N/A     63  63 100 S5        29.21F

...LAKE AND SUPPLEMENTAL COASTAL OBSERVATIONS...

STATION/POSITION TIME  TEMP    WIND        PRES    WAVE   SWELL
                       AIR SEA DIR/SP/G            HT/PER HT/PER/DIR
                 (UTC) (F)     (DEG/KT/KT) (MB)    (FT/S) (FT/S/D)
FORT PULASKI     0400   62 59  270/ 19/ 30  994.8
SAPELO ISLAND    0400   62     250/ 14      996.0
WINYAH BAY       0345   61     100/  5      993.0F
LAKE MURRAY      0420   59     100/  4/  6  989.8
ACE BASIN NERRS  0345   65     190/  3      992.0F


...C-MAN AND BUOY OBSERVATIONS...

STATION/POSITION TIME  TEMP    WIND        PRES    WAVE   SWELL
                       AIR SEA DIR/SP/G            HT/PER HT/PER/DIR
                 (UTC) (F)     (DEG/KT/KT) (MB)    (FT/S) (FT/S/D)
BUOY 41004       0350   70 66  190/ 19/ 23  992.3R   7/ 5   2/180/ 9
BUOY 41008       0350   63 60  250/ 21/ 25  994.9R   4/ 6   2/110/ 8
FOLLY BEACH CMAN 0400   63     180/ 12/ 14  992.4F
CAPERS NS BUOY   0408   63 56  160/  8/ 12  991.5F
FRIPP NS BUOY    0408   63 58  240/ 21/ 27  993.3R
5E ST. MARYS GA  0400      63                N/A     5/ 7   2/110/14


STATION/POSITION TIME  TEMP    WIND        PRES    WAVE   SWELL
                       AIR SEA DIR/SP/G            HT/PER HT/PER/DIR
                 (UTC) (F)     (DEG/KT/KT) (MB)    (FT/S) (FT/S/D)
FRYING PAN BUOY  0410   69 66  140/ 21/ 27  994.3
BUOY 41025       0350   63 71   50/ 12/ 14  998.8F   4/13   3/ 80/13
CAPE LOOKOUT NC  0400   64      40/  9/ 10  998.1R
BUOY 41002       0350   69 71   50/  8/ 10 1002.4F   8/ 8   8/210/ 8
BUOY 41010       NOT AVBL
ST AUGUSTINE FL  0400   64 66  260/  6/  8  998.3F

$$




USA.gov is the U.S. government's official web portal to all federal, state and local government web resources and services.